Погода в Дубне

Россия / Тульская область     54°09′20″N   36°57′37″E
темп.,
°C
ветер,
м/с
пор.,
м/с
влажн.,
%
обл.,
%
осадки,
мм/ч
давл.,
гПа
погр.,
м
18 августа, чт
чт1800:00+18в3474100 0.0 101764
03:00+19всв3756100 0.0 1017159
06:00+18всв41067100 0.3 1017197
09:00+20всв5115994 0.3 1017352
12:00+25всв794377 0.0 1017752
15:00+27всв783857 0.0 10171082
18:00+24всв51147100 0.0 1017585
21:00+22всв5104417 0.0 1017309
19 августа, пт
пт1900:00+21всв51350100 0.0 1018416
03:00+20всв51157100 0.0 1018429
06:00+16всв51066100 0.0 1019278
09:00+20в81155100 0.0 1021871
12:00+16в81391100 0.9 1022753
15:00+17в71285100 0.9 1023774
18:00+17в71483100 0.1 1023689
21:00+17в51377100 0.1 1023709
20 августа, сб
сб2000:00+17в61481100 0.0 1023860
03:00+15в71587100 0.4 1023677
06:00+16вюв71787100 0.0 1022781
09:00+19вюв91566100 0.0 1022866
12:00+20юв61158100 0.1 1023760
15:00+25юв6938100 0.1 10221897
18:00+23вюв81243100 0.0 10221032
21:00+22в81536100 0.0 1022748
21 августа, вс
вс2100:00+19всв4845100 0.0 1022202
03:00+18в3943100 0.0 1022260
06:00+19вюв61329100 0.0 1022414
09:00+19вюв51138100 0.0 1022455
12:00+22вюв6103596 0.0 1022587
15:00+25юв7102999 0.0 10221119
18:00+22юв61234100 0.0 1021572
21:00+20вюв41335100 0.0 1022302
22 августа, пн
пн2200:00+19вюв31034100 0.0 1021214
03:00+19в41033100 0.0 1022212
06:00+17вюв41137100 0.0 1022182
09:00+21вюв51139100 0.0 1023366
12:00+27юв6931100 0.0 1022984
15:00+29юв682676 0.0 10212312
18:00+27вюв483828 0.0 1021256
21:00+21в464612 0.0 102277